星链-30257 (STARLINK-30257 )

导读

STARLINK-30257是美国太空探索技术公司SpaceX星链卫星互联网项目的卫星,于2023年8月8日发射升空,归属美国所有。星链计划旨在通过构建大规模低轨卫星星座,为全球范围用户提供高速低成本卫星互联网接入服务,该卫星是星链组网部署中的一颗,助力完善星座覆盖能力。

基本信息
目录编号:
57526
目录名称:
STARLINK-30257
国际标识:
2023-115F
轨道中心:
EARTH
卫星名称:
星链-30257
卫星全名:
星链-30257 (STARLINK-30257 )
卫星状态:
在轨 (已飞行1045 天)
发射日期:
2023-08-08 UTC
国别 :
美国 (US)
星等 :
--
轨道信息
数据来源 国际轨道数据 AOE轨道数据
星历时间 2026-06-18T08:21:16+0800
12小时前
查看轨道信息
2026-06-16T22:00:00+0800
1天前
查看轨道信息
半长轴 6861.197km 6861.19km
偏心率 0.0001694 0.0000986
轨道倾角 43.004° 42.996°
近地点辐角 278.756° 294.623°
升交点赤经 155.135° 163.231°
平近点角 81.310° 104.313°
近地点 481.897km 482.376km
远地点 484.223km 483.73km
周期 94.267分钟 94.267分钟
每日圈数 15.275766 15.275789
详细信息
固有亮度:
5
最大亮度:
0.3
卫星平台:
Starlink v2.0 mini
覆盖范围:
全球
运营商:
太空探索技术公司
运营商所在国:
美国
制造商(研发单位):
太空探索技术公司
制造商所在国:
美国
使用方式:
暂无
卫星简介
星链(Starlink)计划是由太空探索技术公司(SpaceX)提出的一个巨型低轨卫星互联网星座项目,计划在2019年至2024年间在太空搭建由约1.2万颗卫星组成的“星链”网络,其中1584颗将部署在地球上空550千米处的近地轨道,并从2020年开始工作。该卫星仍在工作。
2D轨道图
3D轨道图
轨道高度分析图
轨道倾角分析图
轨道综合分析图
查看轨道综合分析图